Time,TemperatureF,DewpointF,PressureIn,WindDirection,WindDirectionDegrees,WindSpeedMPH,WindSpeedGustMPH,Humidity,HourlyPrecipIn,Conditions,Clouds,dailyrainin,SoftwareType,DateUTC
2013-03-25 00:00:00,33.7,24.8,29.73,NE,45,3.0,3.0,69,-99.99,,,-99.99,tws,2013-03-25 04:00:00,
2013-03-25 00:02:00,33.6,24.7,29.73,NNE,22,6.2,6.2,69,-99.99,,,-99.99,tws,2013-03-25 04:02:00,
2013-03-25 00:03:00,33.6,24.6,29.73,NNE,22,7.2,7.2,69,-99.99,,,-99.99,tws,2013-03-25 04:03:00,
2013-03-25 00:06:00,33.4,24.4,29.73,NNE,22,8.1,8.1,69,-99.99,,,-99.99,tws,2013-03-25 04:06:00,
2013-03-25 00:11:00,33.5,24.7,29.72,NNE,22,6.3,6.3,69,-99.99,,,-99.99,tws,2013-03-25 04:11:00,
2013-03-25 00:16:00,33.0,24.4,29.72,NNE,22,6.5,6.5,70,-99.99,,,-99.99,tws,2013-03-25 04:16:00,
2013-03-25 00:22:00,33.4,24.6,29.72,NE,45,6.4,6.4,69,-99.99,,,-99.99,tws,2013-03-25 04:22:00,
2013-03-25 00:27:00,33.4,24.5,29.72,NNE,22,5.2,5.2,69,-99.99,,,-99.99,tws,2013-03-25 04:27:00,
2013-03-25 00:32:00,33.0,24.2,29.72,NE,45,6.9,6.9,69,-99.99,,,-99.99,tws,2013-03-25 04:32:00,
2013-03-25 00:38:00,33.3,24.4,29.72,NNE,22,6.9,6.9,69,-99.99,,,-99.99,tws,2013-03-25 04:38:00,
2013-03-25 00:43:00,33.2,24.4,29.71,North,0,9.0,9.0,70,-99.99,,,-99.99,tws,2013-03-25 04:43:00,
2013-03-25 00:48:00,33.2,24.4,29.71,North,360,10.3,10.3,70,-99.99,,,-99.99,tws,2013-03-25 04:48:00,
2013-03-25 00:53:00,33.3,24.8,29.71,NE,45,7.1,7.1,70,-99.99,,,-99.99,tws,2013-03-25 04:53:00,
2013-03-25 00:58:00,33.3,24.6,29.71,North,0,6.5,6.5,70,-99.99,,,-99.99,tws,2013-03-25 04:58:00,
2013-03-25 01:03:00,32.9,24.4,29.71,ENE,67,3.8,3.8,70,-99.99,,,-99.99,tws,2013-03-25 05:03:00,
2013-03-25 01:08:00,33.0,24.5,29.71,NNE,22,6.0,6.0,70,-99.99,,,-99.99,tws,2013-03-25 05:08:00,
2013-03-25 01:13:00,32.9,24.3,29.71,NNE,22,5.3,5.3,70,-99.99,,,-99.99,tws,2013-03-25 05:13:00,
2013-03-25 01:18:00,32.7,24.3,29.71,North,0,8.1,8.1,71,-99.99,,,-99.99,tws,2013-03-25 05:18:00,
2013-03-25 01:23:00,32.6,24.5,29.71,NNE,22,8.8,8.8,71,-99.99,,,-99.99,tws,2013-03-25 05:23:00,
2013-03-25 01:28:00,32.6,24.2,29.71,North,0,9.2,9.2,71,-99.99,,,-99.99,tws,2013-03-25 05:28:00,
2013-03-25 01:33:00,32.2,24.5,29.71,NNE,22,11.7,11.7,72,-99.99,,,-99.99,tws,2013-03-25 05:33:00,
2013-03-25 01:38:00,32.6,24.7,29.71,NNE,22,11.5,11.5,72,-99.99,,,-99.99,tws,2013-03-25 05:38:00,
2013-03-25 01:43:00,32.6,24.7,29.71,NNE,22,8.6,8.6,72,-99.99,,,-99.99,tws,2013-03-25 05:43:00,
2013-03-25 01:48:00,32.4,24.3,29.71,North,360,5.7,5.7,72,-99.99,,,-99.99,tws,2013-03-25 05:48:00,
2013-03-25 01:53:00,32.5,24.5,29.71,North,360,9.1,9.1,72,-99.99,,,-99.99,tws,2013-03-25 05:53:00,
2013-03-25 01:58:00,32.5,24.6,29.70,NW,315,7.0,7.0,72,-99.99,,,-99.99,tws,2013-03-25 05:58:00,
2013-03-25 02:03:00,32.4,24.7,29.70,NNE,22,6.9,6.9,73,-99.99,,,-99.99,tws,2013-03-25 06:03:00,
2013-03-25 02:08:00,32.7,24.9,29.70,NE,45,5.9,5.9,72,-99.99,,,-99.99,tws,2013-03-25 06:08:00,
2013-03-25 02:13:00,32.4,24.8,29.70,North,0,8.6,8.6,73,-99.99,,,-99.99,tws,2013-03-25 06:13:00,
2013-03-25 02:18:00,32.2,24.7,29.69,NE,45,9.4,9.4,73,-99.99,,,-99.99,tws,2013-03-25 06:18:00,
2013-03-25 02:23:00,32.1,24.6,29.69,NNE,22,15.0,15.0,73,-99.99,,,-99.99,tws,2013-03-25 06:23:00,
2013-03-25 02:28:00,32.0,24.6,29.69,NE,45,10.1,10.1,73,-99.99,,,-99.99,tws,2013-03-25 06:28:00,
2013-03-25 02:33:00,32.2,24.7,29.69,North,0,5.3,5.3,73,-99.99,,,-99.99,tws,2013-03-25 06:33:00,
2013-03-25 02:38:00,32.0,24.6,29.69,North,360,8.0,8.0,73,-99.99,,,-99.99,tws,2013-03-25 06:38:00,
2013-03-25 02:43:00,32.4,24.8,29.69,North,0,6.0,6.0,73,-99.99,,,-99.99,tws,2013-03-25 06:43:00,
2013-03-25 02:48:00,32.0,24.6,29.69,NNE,22,6.2,6.2,73,-99.99,,,-99.99,tws,2013-03-25 06:48:00,
2013-03-25 02:53:00,32.0,24.6,29.69,NNE,22,7.7,7.7,73,-99.99,,,-99.99,tws,2013-03-25 06:53:00,
2013-03-25 02:59:00,31.5,24.4,29.69,NE,45,8.1,8.1,75,-99.99,,,-99.99,tws,2013-03-25 06:59:00,
2013-03-25 03:04:00,31.5,24.5,29.68,NNE,22,9.0,9.0,75,-99.99,,,-99.99,tws,2013-03-25 07:04:00,
2013-03-25 03:09:00,31.3,24.6,29.68,NNE,22,6.8,6.8,75,-99.99,,,-99.99,tws,2013-03-25 07:09:00,
2013-03-25 03:14:00,31.2,24.5,29.68,NE,45,10.0,10.0,76,-99.99,,,-99.99,tws,2013-03-25 07:14:00,
2013-03-25 03:19:00,31.1,24.6,29.68,NNE,22,8.2,8.2,76,-99.99,,,-99.99,tws,2013-03-25 07:19:00,
2013-03-25 03:24:00,31.1,24.6,29.68,NNE,22,7.6,7.6,76,-99.99,,,-99.99,tws,2013-03-25 07:24:00,
2013-03-25 03:29:00,31.0,24.6,29.68,NNE,22,4.0,4.0,76,-99.99,,,-99.99,tws,2013-03-25 07:29:00,
2013-03-25 03:34:00,31.0,24.5,29.68,NNE,22,6.1,6.1,76,-99.99,,,-99.99,tws,2013-03-25 07:34:00,
2013-03-25 03:39:00,30.9,24.4,29.68,NE,45,6.8,6.8,76,-99.99,,,-99.99,tws,2013-03-25 07:39:00,
2013-03-25 03:44:00,30.9,24.4,29.67,NNE,22,6.4,6.4,76,-99.99,,,-99.99,tws,2013-03-25 07:44:00,
2013-03-25 03:49:00,31.1,24.6,29.67,NNE,22,6.2,6.2,76,-99.99,,,-99.99,tws,2013-03-25 07:49:00,
2013-03-25 03:54:00,30.6,24.0,29.67,NNE,22,7.6,7.6,76,-99.99,,,-99.99,tws,2013-03-25 07:54:00,
2013-03-25 03:59:00,30.6,24.3,29.66,NE,45,6.2,6.2,77,-99.99,,,-99.99,tws,2013-03-25 07:59:00,
2013-03-25 04:04:00,30.8,24.7,29.66,North,0,4.1,4.1,77,-99.99,,,-99.99,tws,2013-03-25 08:04:00,
2013-03-25 04:09:00,30.6,24.5,29.66,NNE,22,5.5,5.5,78,-99.99,,,-99.99,tws,2013-03-25 08:09:00,
2013-03-25 04:14:00,30.7,24.2,29.66,NE,45,4.7,4.7,76,-99.99,,,-99.99,tws,2013-03-25 08:14:00,
2013-03-25 04:20:00,30.0,24.3,29.66,NNE,22,9.7,9.7,79,-99.99,,,-99.99,tws,2013-03-25 08:20:00,
2013-03-25 04:25:00,29.9,24.3,29.66,NNE,22,8.5,8.5,79,-99.99,,,-99.99,tws,2013-03-25 08:25:00,
2013-03-25 04:30:00,29.8,24.3,29.66,NNE,22,10.9,10.9,79,-99.99,,,-99.99,tws,2013-03-25 08:30:00,
2013-03-25 04:35:00,30.0,24.6,29.66,NE,45,7.4,7.4,79,-99.99,,,-99.99,tws,2013-03-25 08:35:00,
2013-03-25 04:40:00,29.8,24.4,29.66,NNE,22,8.2,8.2,80,-99.99,,,-99.99,tws,2013-03-25 08:40:00,
2013-03-25 04:45:00,29.9,24.4,29.66,NNE,22,8.2,8.2,79,-99.99,,,-99.99,tws,2013-03-25 08:45:00,
2013-03-25 04:51:00,29.7,24.4,29.66,NE,45,9.4,9.4,80,-99.99,,,-99.99,tws,2013-03-25 08:51:00,
2013-03-25 04:57:00,29.7,24.4,29.65,NNE,22,8.1,8.1,80,-99.99,,,-99.99,tws,2013-03-25 08:57:00,
2013-03-25 05:02:00,29.8,24.6,29.65,NE,45,9.3,9.3,80,-99.99,,,-99.99,tws,2013-03-25 09:02:00,
2013-03-25 05:07:00,29.8,24.6,29.65,NNE,22,6.4,6.4,80,-99.99,,,-99.99,tws,2013-03-25 09:07:00,
2013-03-25 05:13:00,29.4,24.4,29.65,NE,45,12.2,12.2,81,-99.99,,,-99.99,tws,2013-03-25 09:13:00,
2013-03-25 05:19:00,29.3,24.4,29.66,NNE,22,11.7,11.7,81,-99.99,,,-99.99,tws,2013-03-25 09:19:00,
2013-03-25 05:24:00,29.4,24.5,29.65,NNE,22,9.7,9.7,81,-99.99,,,-99.99,tws,2013-03-25 09:24:00,
2013-03-25 05:29:00,29.5,24.6,29.65,NNE,22,9.1,9.1,81,-99.99,,,-99.99,tws,2013-03-25 09:29:00,
2013-03-25 05:35:00,29.3,24.3,29.65,NNE,22,11.7,11.7,81,-99.99,,,-99.99,tws,2013-03-25 09:35:00,
2013-03-25 05:40:00,29.4,24.5,29.65,NNE,22,9.3,9.3,81,-99.99,,,-99.99,tws,2013-03-25 09:40:00,
2013-03-25 05:45:00,29.8,24.5,29.65,NNE,22,6.9,6.9,80,-99.99,,,-99.99,tws,2013-03-25 09:45:00,
2013-03-25 05:50:00,29.7,24.4,29.65,North,360,6.0,6.0,80,-99.99,,,-99.99,tws,2013-03-25 09:50:00,
2013-03-25 05:55:00,29.8,24.3,29.65,NNE,22,7.3,7.3,79,-99.99,,,-99.99,tws,2013-03-25 09:55:00,
2013-03-25 06:00:00,30.1,24.4,29.65,NNE,22,7.1,7.1,79,-99.99,,,-99.99,tws,2013-03-25 10:00:00,
2013-03-25 06:05:00,30.2,24.6,29.65,NNE,22,3.2,3.2,79,-99.99,,,-99.99,tws,2013-03-25 10:05:00,
2013-03-25 06:10:00,29.9,24.3,29.65,NE,45,7.0,7.0,79,-99.99,,,-99.99,tws,2013-03-25 10:10:00,
2013-03-25 06:15:00,29.8,24.3,29.65,NE,45,7.0,7.0,79,-99.99,,,-99.99,tws,2013-03-25 10:15:00,
2013-03-25 06:20:00,29.7,24.2,29.65,NNE,22,9.2,9.2,79,-99.99,,,-99.99,tws,2013-03-25 10:20:00,
2013-03-25 06:25:00,29.5,24.2,29.65,NE,45,7.8,7.8,80,-99.99,,,-99.99,tws,2013-03-25 10:25:00,
2013-03-25 06:30:00,29.2,24.1,29.65,NNE,22,8.2,8.2,80,-99.99,,,-99.99,tws,2013-03-25 10:30:00,
2013-03-25 06:35:00,29.7,24.5,29.65,NNE,22,6.7,6.7,80,-99.99,,,-99.99,tws,2013-03-25 10:35:00,
2013-03-25 06:41:00,29.2,24.1,29.65,NNE,22,8.8,8.8,81,-99.99,,,-99.99,tws,2013-03-25 10:41:00,
2013-03-25 06:47:00,29.3,24.2,29.65,NE,45,8.8,8.8,81,-99.99,,,-99.99,tws,2013-03-25 10:47:00,
2013-03-25 06:52:00,29.2,24.1,29.66,NE,45,9.5,9.5,81,-99.99,,,-99.99,tws,2013-03-25 10:52:00,
2013-03-25 06:57:00,29.3,24.3,29.66,NE,45,8.6,8.6,81,-99.99,,,-99.99,tws,2013-03-25 10:57:00,
2013-03-25 07:03:00,29.2,24.2,29.66,NNE,22,9.8,9.8,81,-99.99,,,-99.99,tws,2013-03-25 11:03:00,
2013-03-25 07:09:00,29.5,24.6,29.66,NNE,22,10.0,10.0,81,-99.99,,,-99.99,tws,2013-03-25 11:09:00,
2013-03-25 07:14:00,29.5,24.5,29.66,NNE,22,8.7,8.7,81,-99.99,,,-99.99,tws,2013-03-25 11:14:00,
2013-03-25 07:19:00,29.3,24.2,29.66,NNE,22,11.8,11.8,81,-99.99,,,-99.99,tws,2013-03-25 11:19:00,
2013-03-25 07:24:00,29.5,24.4,29.66,NNE,22,9.6,9.6,80,-99.99,,,-99.99,tws,2013-03-25 11:24:00,
2013-03-25 07:29:00,29.5,24.2,29.66,NNE,22,11.3,11.3,80,-99.99,,,-99.99,tws,2013-03-25 11:29:00,
2013-03-25 07:34:00,30.2,24.9,29.66,NNW,337,4.1,4.1,80,-99.99,,,-99.99,tws,2013-03-25 11:34:00,
2013-03-25 07:39:00,30.0,24.5,29.66,NNE,22,9.5,9.5,79,-99.99,,,-99.99,tws,2013-03-25 11:39:00,
2013-03-25 07:44:00,30.3,24.7,29.66,NNE,22,8.4,8.4,79,-99.99,,,-99.99,tws,2013-03-25 11:44:00,
2013-03-25 07:49:00,30.5,24.8,29.66,NE,45,7.9,7.9,79,-99.99,,,-99.99,tws,2013-03-25 11:49:00,
2013-03-25 07:55:00,30.7,24.8,29.66,NNE,22,8.6,8.6,78,-99.99,,,-99.99,tws,2013-03-25 11:55:00,
2013-03-25 08:00:00,30.6,24.7,29.66,NNE,22,12.3,12.3,78,-99.99,,,-99.99,tws,2013-03-25 12:00:00,
2013-03-25 08:05:00,30.8,24.9,29.66,NNE,22,12.6,12.6,78,-99.99,,,-99.99,tws,2013-03-25 12:05:00,
2013-03-25 08:10:00,31.2,25.2,29.66,NNE,22,11.2,11.2,78,-99.99,,,-99.99,tws,2013-03-25 12:10:00,
2013-03-25 08:15:00,31.1,24.9,29.66,NE,45,14.9,14.9,77,-99.99,,,-99.99,tws,2013-03-25 12:15:00,
2013-03-25 08:20:00,31.5,25.2,29.66,NNE,22,7.4,7.4,77,-99.99,,,-99.99,tws,2013-03-25 12:20:00,
2013-03-25 08:25:00,31.2,24.9,29.65,NNE,22,12.6,12.6,77,-99.99,,,-99.99,tws,2013-03-25 12:25:00,
2013-03-25 08:30:00,31.6,25.0,29.66,NNE,22,11.4,11.4,76,-99.99,,,-99.99,tws,2013-03-25 12:30:00,
2013-03-25 08:35:00,31.6,25.0,29.65,North,0,12.3,12.3,76,-99.99,,,-99.99,tws,2013-03-25 12:35:00,
2013-03-25 08:40:00,31.8,24.9,29.65,NNE,22,13.2,13.2,75,-99.99,,,-99.99,tws,2013-03-25 12:40:00,
2013-03-25 08:45:00,31.7,24.7,29.65,NNE,22,16.1,16.1,75,-99.99,,,-99.99,tws,2013-03-25 12:45:00,
2013-03-25 08:51:00,31.8,24.6,29.64,NE,45,19.1,19.1,74,-99.99,,,-99.99,tws,2013-03-25 12:51:00,
2013-03-25 08:56:00,32.8,25.6,29.65,North,0,9.1,9.1,74,-99.99,,,-99.99,tws,2013-03-25 12:56:00,
2013-03-25 09:02:00,33.2,25.3,29.64,NE,45,10.5,10.5,72,-99.99,,,-99.99,tws,2013-03-25 13:02:00,
2013-03-25 09:08:00,33.0,25.2,29.64,NNE,22,13.5,13.5,72,-99.99,,,-99.99,tws,2013-03-25 13:08:00,
2013-03-25 09:13:00,34.3,26.2,29.64,NE,45,7.8,7.8,71,-99.99,,,-99.99,tws,2013-03-25 13:13:00,
2013-03-25 09:18:00,33.9,25.5,29.64,North,360,14.0,14.0,70,-99.99,,,-99.99,tws,2013-03-25 13:18:00,
2013-03-25 09:23:00,34.0,25.7,29.64,NNE,22,12.0,12.0,71,-99.99,,,-99.99,tws,2013-03-25 13:23:00,
2013-03-25 09:28:00,33.8,25.3,29.64,NNE,22,15.4,15.4,70,-99.99,,,-99.99,tws,2013-03-25 13:28:00,
2013-03-25 09:33:00,33.7,25.1,29.63,NNE,22,19.2,19.2,70,-99.99,,,-99.99,tws,2013-03-25 13:33:00,
2013-03-25 09:38:00,34.6,25.7,29.63,NNE,22,12.8,12.8,69,-99.99,,,-99.99,tws,2013-03-25 13:38:00,
2013-03-25 09:43:00,34.5,25.6,29.63,ENE,67,15.6,15.6,69,-99.99,,,-99.99,tws,2013-03-25 13:43:00,
2013-03-25 09:48:00,35.2,26.0,29.63,NNE,22,13.8,13.8,68,-99.99,,,-99.99,tws,2013-03-25 13:48:00,
2013-03-25 09:53:00,37.1,27.1,29.63,North,0,4.8,4.8,66,-99.99,,,-99.99,tws,2013-03-25 13:53:00,
2013-03-25 09:58:00,35.8,26.1,29.63,NNE,22,17.6,17.6,67,-99.99,,,-99.99,tws,2013-03-25 13:58:00,
2013-03-25 10:03:00,37.0,26.8,29.63,NE,45,13.8,13.8,66,-99.99,,,-99.99,tws,2013-03-25 14:03:00,
2013-03-25 10:09:00,37.4,27.0,29.63,NE,45,12.6,12.6,65,-99.99,,,-99.99,tws,2013-03-25 14:09:00,
2013-03-25 10:15:00,37.7,26.9,29.63,NNE,22,15.9,15.9,64,-99.99,,,-99.99,tws,2013-03-25 14:15:00,
2013-03-25 10:20:00,38.0,27.2,29.63,NNE,22,15.9,15.9,64,-99.99,,,-99.99,tws,2013-03-25 14:20:00,
2013-03-25 10:26:00,37.1,26.2,29.62,NNW,337,17.5,17.5,64,-99.99,,,-99.99,tws,2013-03-25 14:26:00,
2013-03-25 10:31:00,38.0,26.9,29.62,North,360,14.0,14.0,64,-99.99,,,-99.99,tws,2013-03-25 14:31:00,
2013-03-25 10:36:00,39.0,27.5,29.62,ENE,67,14.7,14.7,62,-99.99,,,-99.99,tws,2013-03-25 14:36:00,
2013-03-25 10:41:00,39.2,27.4,29.62,North,0,11.1,11.1,62,-99.99,,,-99.99,tws,2013-03-25 14:41:00,
2013-03-25 10:46:00,39.1,27.7,29.61,NNE,22,12.7,12.7,63,-99.99,,,-99.99,tws,2013-03-25 14:46:00,
2013-03-25 10:52:00,40.1,28.0,29.61,NNW,337,10.4,10.4,61,-99.99,,,-99.99,tws,2013-03-25 14:52:00,
2013-03-25 10:58:00,40.7,27.9,29.61,NE,45,14.3,14.3,59,-99.99,,,-99.99,tws,2013-03-25 14:58:00,
2013-03-25 11:03:00,39.8,27.8,29.61,NNE,22,12.6,12.6,61,-99.99,,,-99.99,tws,2013-03-25 15:03:00,
2013-03-25 11:08:00,41.6,28.6,29.61,NE,45,13.7,13.7,59,-99.99,,,-99.99,tws,2013-03-25 15:08:00,
2013-03-25 11:13:00,41.0,28.0,29.60,NNE,22,15.7,15.7,59,-99.99,,,-99.99,tws,2013-03-25 15:13:00,
2013-03-25 11:18:00,42.5,29.2,29.60,NNE,22,8.9,8.9,59,-99.99,,,-99.99,tws,2013-03-25 15:18:00,
2013-03-25 11:23:00,43.2,29.1,29.60,NNE,22,13.2,13.2,57,-99.99,,,-99.99,tws,2013-03-25 15:23:00,
2013-03-25 11:28:00,43.4,29.2,29.59,NE,45,14.6,14.6,57,-99.99,,,-99.99,tws,2013-03-25 15:28:00,
2013-03-25 11:33:00,43.0,28.7,29.59,NNE,22,12.8,12.8,56,-99.99,,,-99.99,tws,2013-03-25 15:33:00,
2013-03-25 11:38:00,43.0,29.1,29.59,NNW,337,13.0,13.0,57,-99.99,,,-99.99,tws,2013-03-25 15:38:00,
2013-03-25 11:43:00,42.0,28.2,29.58,NNW,337,20.5,20.5,57,-99.99,,,-99.99,tws,2013-03-25 15:43:00,
2013-03-25 11:48:00,41.9,28.1,29.58,NNE,22,18.4,18.4,57,-99.99,,,-99.99,tws,2013-03-25 15:48:00,
2013-03-25 11:53:00,42.7,28.8,29.58,NNE,22,7.7,7.7,57,-99.99,,,-99.99,tws,2013-03-25 15:53:00,
2013-03-25 11:58:00,42.0,28.2,29.58,NNE,22,14.9,14.9,57,-99.99,,,-99.99,tws,2013-03-25 15:58:00,
2013-03-25 12:03:00,44.4,30.2,29.57,East,90,11.4,11.4,57,-99.99,,,-99.99,tws,2013-03-25 16:03:00,
2013-03-25 12:08:00,42.8,29.0,29.57,NNE,22,17.1,17.1,57,-99.99,,,-99.99,tws,2013-03-25 16:08:00,
2013-03-25 12:13:00,43.2,28.9,29.57,NE,45,13.8,13.8,56,-99.99,,,-99.99,tws,2013-03-25 16:13:00,
2013-03-25 12:18:00,43.5,29.5,29.56,NNE,22,13.5,13.5,57,-99.99,,,-99.99,tws,2013-03-25 16:18:00,
2013-03-25 12:23:00,43.5,28.9,29.56,North,360,12.0,12.0,56,-99.99,,,-99.99,tws,2013-03-25 16:23:00,
2013-03-25 12:29:00,43.5,29.2,29.55,ENE,67,9.9,9.9,56,-99.99,,,-99.99,tws,2013-03-25 16:29:00,
2013-03-25 12:34:00,44.7,29.8,29.55,North,0,20.8,20.8,55,-99.99,,,-99.99,tws,2013-03-25 16:34:00,
2013-03-25 12:39:00,44.7,29.8,29.55,NNE,22,14.1,14.1,55,-99.99,,,-99.99,tws,2013-03-25 16:39:00,
2013-03-25 12:44:00,44.8,29.9,29.55,North,0,12.8,12.8,55,-99.99,,,-99.99,tws,2013-03-25 16:44:00,
2013-03-25 12:49:00,44.8,28.6,29.55,NE,45,17.5,17.5,52,-99.99,,,-99.99,tws,2013-03-25 16:49:00,
2013-03-25 12:54:00,44.2,28.9,29.54,ENE,67,15.8,15.8,54,-99.99,,,-99.99,tws,2013-03-25 16:54:00,
2013-03-25 12:59:00,44.6,28.7,29.54,NE,45,18.6,18.6,53,-99.99,,,-99.99,tws,2013-03-25 16:59:00,
2013-03-25 13:04:00,47.2,30.6,29.53,NE,45,10.7,10.7,52,-99.99,,,-99.99,tws,2013-03-25 17:04:00,
2013-03-25 13:09:00,47.9,30.7,29.53,NNE,22,15.3,15.3,50,-99.99,,,-99.99,tws,2013-03-25 17:09:00,
2013-03-25 13:14:00,45.2,29.0,29.52,North,0,16.5,16.5,52,-99.99,,,-99.99,tws,2013-03-25 17:14:00,
2013-03-25 13:19:00,45.9,29.2,29.52,North,0,17.6,17.6,51,-99.99,,,-99.99,tws,2013-03-25 17:19:00,
2013-03-25 13:24:00,44.4,28.0,29.52,North,360,18.9,18.9,52,-99.99,,,-99.99,tws,2013-03-25 17:24:00,
2013-03-25 13:29:00,46.3,30.0,29.52,NNE,22,12.5,12.5,52,-99.99,,,-99.99,tws,2013-03-25 17:29:00,
2013-03-25 13:34:00,45.2,28.8,29.51,NNE,22,10.1,10.1,52,-99.99,,,-99.99,tws,2013-03-25 17:34:00,
2013-03-25 13:39:00,45.6,28.7,29.52,NNW,337,13.4,13.4,51,-99.99,,,-99.99,tws,2013-03-25 17:39:00,
2013-03-25 13:44:00,45.4,29.1,29.51,NNE,22,18.2,18.2,52,-99.99,,,-99.99,tws,2013-03-25 17:44:00,
2013-03-25 13:49:00,45.1,29.1,29.51,NNW,337,13.6,13.6,53,-99.99,,,-99.99,tws,2013-03-25 17:49:00,
2013-03-25 13:54:00,44.6,28.6,29.50,East,90,12.5,12.5,53,-99.99,,,-99.99,tws,2013-03-25 17:54:00,
2013-03-25 13:59:00,46.1,29.8,29.50,NE,45,9.3,9.3,52,-99.99,,,-99.99,tws,2013-03-25 17:59:00,
2013-03-25 14:04:00,44.5,28.4,29.50,WNW,292,21.7,21.7,52,-99.99,,,-99.99,tws,2013-03-25 18:04:00,
2013-03-25 14:09:00,45.2,28.8,29.50,NE,45,16.9,16.9,52,-99.99,,,-99.99,tws,2013-03-25 18:09:00,
2013-03-25 14:14:00,45.5,28.7,29.50,NE,45,11.6,11.6,51,-99.99,,,-99.99,tws,2013-03-25 18:14:00,
2013-03-25 14:19:00,46.2,29.1,29.49,NE,45,10.8,10.8,51,-99.99,,,-99.99,tws,2013-03-25 18:19:00,
2013-03-25 14:24:00,45.5,28.9,29.49,North,0,19.8,19.8,51,-99.99,,,-99.99,tws,2013-03-25 18:24:00,
2013-03-25 14:29:00,45.4,29.0,29.48,North,0,11.1,11.1,52,-99.99,,,-99.99,tws,2013-03-25 18:29:00,
2013-03-25 14:34:00,45.5,28.7,29.48,NNW,337,14.3,14.3,51,-99.99,,,-99.99,tws,2013-03-25 18:34:00,
2013-03-25 14:39:00,46.4,29.6,29.48,NW,315,4.4,4.4,51,-99.99,,,-99.99,tws,2013-03-25 18:39:00,
2013-03-25 14:44:00,45.1,26.5,29.47,NE,45,18.2,18.2,47,-99.99,,,-99.99,tws,2013-03-25 18:44:00,
2013-03-25 14:49:00,46.3,27.7,29.47,ENE,67,16.6,16.6,47,-99.99,,,-99.99,tws,2013-03-25 18:49:00,
2013-03-25 14:54:00,45.4,26.9,29.47,NE,45,17.4,17.4,47,-99.99,,,-99.99,tws,2013-03-25 18:54:00,
2013-03-25 14:59:00,45.6,27.3,29.46,ESE,112,17.4,17.4,48,-99.99,,,-99.99,tws,2013-03-25 18:59:00,
2013-03-25 15:04:00,45.3,27.9,29.46,NE,45,23.9,23.9,50,-99.99,,,-99.99,tws,2013-03-25 19:04:00,
2013-03-25 15:09:00,44.7,26.7,29.46,ENE,67,16.9,16.9,48,-99.99,,,-99.99,tws,2013-03-25 19:09:00,
2013-03-25 15:15:00,45.0,26.9,29.46,ENE,67,19.1,19.1,48,-99.99,,,-99.99,tws,2013-03-25 19:15:00,
2013-03-25 15:20:00,44.8,27.2,29.46,NNE,22,18.1,18.1,49,-99.99,,,-99.99,tws,2013-03-25 19:20:00,
2013-03-25 15:27:00,45.0,27.6,29.46,NE,45,18.9,18.9,50,-99.99,,,-99.99,tws,2013-03-25 19:27:00,
2013-03-25 15:32:00,44.6,27.5,29.45,NNE,22,16.2,16.2,50,-99.99,,,-99.99,tws,2013-03-25 19:32:00,
2013-03-25 15:38:00,43.8,28.5,29.45,NNE,22,18.7,18.7,54,-99.99,,,-99.99,tws,2013-03-25 19:38:00,
2013-03-25 15:43:00,43.8,28.9,29.45,NNW,337,12.8,12.8,55,-99.99,,,-99.99,tws,2013-03-25 19:43:00,
2013-03-25 15:48:00,44.4,29.2,29.45,NNE,22,12.9,12.9,54,-99.99,,,-99.99,tws,2013-03-25 19:48:00,
2013-03-25 15:53:00,43.4,28.2,29.46,North,0,15.1,15.1,54,-99.99,,,-99.99,tws,2013-03-25 19:53:00,
2013-03-25 15:58:00,43.4,28.2,29.46,NNE,22,14.5,14.5,54,-99.99,,,-99.99,tws,2013-03-25 19:58:00,
2013-03-25 16:03:00,44.0,28.3,29.46,ENE,67,10.2,10.2,53,-99.99,,,-99.99,tws,2013-03-25 20:03:00,
2013-03-25 16:08:00,43.3,27.0,29.46,NNE,22,17.6,17.6,52,-99.99,,,-99.99,tws,2013-03-25 20:08:00,
2013-03-25 16:13:00,43.8,27.5,29.46,NNE,22,11.2,11.2,52,-99.99,,,-99.99,tws,2013-03-25 20:13:00,
2013-03-25 16:18:00,42.7,26.5,29.46,NNE,22,23.8,23.8,52,-99.99,,,-99.99,tws,2013-03-25 20:18:00,
2013-03-25 16:23:00,42.7,26.5,29.46,NNE,22,15.9,15.9,52,-99.99,,,-99.99,tws,2013-03-25 20:23:00,
2013-03-25 16:28:00,42.5,26.5,29.46,NE,45,20.3,20.3,52,-99.99,,,-99.99,tws,2013-03-25 20:28:00,
2013-03-25 16:33:00,42.6,26.6,29.47,NE,45,18.7,18.7,52,-99.99,,,-99.99,tws,2013-03-25 20:33:00,
2013-03-25 16:38:00,42.3,26.4,29.47,NE,45,15.3,15.3,53,-99.99,,,-99.99,tws,2013-03-25 20:38:00,
2013-03-25 16:43:00,42.3,26.8,29.46,ENE,67,12.3,12.3,53,-99.99,,,-99.99,tws,2013-03-25 20:43:00,
2013-03-25 16:48:00,42.3,26.8,29.47,NNE,22,16.2,16.2,53,-99.99,,,-99.99,tws,2013-03-25 20:48:00,
2013-03-25 16:53:00,42.3,26.8,29.47,NNE,22,14.9,14.9,53,-99.99,,,-99.99,tws,2013-03-25 20:53:00,
2013-03-25 16:58:00,42.2,26.9,29.47,North,0,17.8,17.8,54,-99.99,,,-99.99,tws,2013-03-25 20:58:00,
2013-03-25 17:03:00,41.8,26.5,29.47,North,0,23.2,23.2,54,-99.99,,,-99.99,tws,2013-03-25 21:03:00,
2013-03-25 17:08:00,41.8,26.8,29.47,ESE,112,16.0,16.0,54,-99.99,,,-99.99,tws,2013-03-25 21:08:00,
2013-03-25 17:13:00,41.9,27.0,29.47,NNE,22,17.3,17.3,55,-99.99,,,-99.99,tws,2013-03-25 21:13:00,
2013-03-25 17:18:00,41.7,26.8,29.47,NNE,22,14.5,14.5,55,-99.99,,,-99.99,tws,2013-03-25 21:18:00,
2013-03-25 17:23:00,41.9,27.1,29.48,NNE,22,13.9,13.9,55,-99.99,,,-99.99,tws,2013-03-25 21:23:00,
2013-03-25 17:28:00,41.7,27.0,29.48,NNE,22,12.7,12.7,55,-99.99,,,-99.99,tws,2013-03-25 21:28:00,
2013-03-25 17:33:00,42.0,27.1,29.48,North,0,12.4,12.4,55,-99.99,,,-99.99,tws,2013-03-25 21:33:00,
2013-03-25 17:38:00,42.0,26.8,29.48,NE,45,13.1,13.1,54,-99.99,,,-99.99,tws,2013-03-25 21:38:00,
2013-03-25 17:43:00,41.8,26.6,29.48,NNE,22,14.3,14.3,54,-99.99,,,-99.99,tws,2013-03-25 21:43:00,
2013-03-25 17:48:00,41.5,26.5,29.48,NNE,22,16.5,16.5,54,-99.99,,,-99.99,tws,2013-03-25 21:48:00,
2013-03-25 17:53:00,41.7,26.3,29.48,NE,45,12.6,12.6,54,-99.99,,,-99.99,tws,2013-03-25 21:53:00,
2013-03-25 17:58:00,41.7,26.4,29.48,North,0,11.6,11.6,54,-99.99,,,-99.99,tws,2013-03-25 21:58:00,
2013-03-25 18:03:00,41.4,26.0,29.48,NE,45,14.8,14.8,54,-99.99,,,-99.99,tws,2013-03-25 22:03:00,
2013-03-25 18:08:00,41.5,26.3,29.48,NNE,22,13.6,13.6,54,-99.99,,,-99.99,tws,2013-03-25 22:08:00,
2013-03-25 18:13:00,41.6,26.7,29.49,NNW,337,8.8,8.8,55,-99.99,,,-99.99,tws,2013-03-25 22:13:00,
2013-03-25 18:18:00,41.4,26.7,29.48,NNE,22,8.8,8.8,55,-99.99,,,-99.99,tws,2013-03-25 22:18:00,
2013-03-25 18:23:00,41.2,26.8,29.49,NE,45,8.0,8.0,56,-99.99,,,-99.99,tws,2013-03-25 22:23:00,
2013-03-25 18:29:00,41.1,26.6,29.50,NNE,22,14.8,14.8,55,-99.99,,,-99.99,tws,2013-03-25 22:29:00,
2013-03-25 18:34:00,41.1,26.2,29.50,NNE,22,15.0,15.0,55,-99.99,,,-99.99,tws,2013-03-25 22:34:00,
2013-03-25 18:39:00,41.1,26.8,29.50,NE,45,8.9,8.9,56,-99.99,,,-99.99,tws,2013-03-25 22:39:00,
2013-03-25 18:44:00,41.2,26.7,29.50,NNE,22,9.3,9.3,55,-99.99,,,-99.99,tws,2013-03-25 22:44:00,
2013-03-25 18:49:00,41.1,26.5,29.50,NNE,22,10.2,10.2,55,-99.99,,,-99.99,tws,2013-03-25 22:49:00,
2013-03-25 18:54:00,41.1,26.6,29.50,NE,45,8.5,8.5,55,-99.99,,,-99.99,tws,2013-03-25 22:54:00,
2013-03-25 18:59:00,41.4,26.9,29.50,North,360,5.3,5.3,56,-99.99,,,-99.99,tws,2013-03-25 22:59:00,
2013-03-25 19:04:00,41.4,26.9,29.50,NNE,22,3.3,3.3,56,-99.99,,,-99.99,tws,2013-03-25 23:04:00,
2013-03-25 19:09:00,40.7,26.3,29.50,NNE,22,8.4,8.4,56,-99.99,,,-99.99,tws,2013-03-25 23:09:00,
2013-03-25 19:14:00,40.7,26.7,29.50,North,0,7.5,7.5,57,-99.99,,,-99.99,tws,2013-03-25 23:14:00,
2013-03-25 19:19:00,40.6,26.1,29.50,North,360,6.4,6.4,56,-99.99,,,-99.99,tws,2013-03-25 23:19:00,
2013-03-25 19:24:00,40.2,26.0,29.50,WNW,292,10.2,10.2,56,-99.99,,,-99.99,tws,2013-03-25 23:24:00,
2013-03-25 19:29:00,39.9,27.0,29.50,NNW,337,10.2,10.2,59,-99.99,,,-99.99,tws,2013-03-25 23:29:00,
2013-03-25 19:34:00,39.8,27.1,29.50,North,360,18.2,18.2,60,-99.99,,,-99.99,tws,2013-03-25 23:34:00,
2013-03-25 19:39:00,39.8,27.7,29.51,North,360,8.6,8.6,61,-99.99,,,-99.99,tws,2013-03-25 23:39:00,
2013-03-25 19:44:00,39.6,27.5,29.51,NNE,22,13.1,13.1,61,-99.99,,,-99.99,tws,2013-03-25 23:44:00,
2013-03-25 19:49:00,39.6,27.6,29.52,NNW,337,11.9,11.9,61,-99.99,,,-99.99,tws,2013-03-25 23:49:00,
2013-03-25 19:54:00,39.5,27.7,29.52,NW,315,16.8,16.8,62,-99.99,,,-99.99,tws,2013-03-25 23:54:00,
2013-03-25 19:59:00,39.5,27.9,29.52,North,0,10.3,10.3,62,-99.99,,,-99.99,tws,2013-03-25 23:59:00,
2013-03-25 20:04:00,39.5,27.6,29.52,North,360,17.5,17.5,62,-99.99,,,-99.99,tws,2013-03-26 00:04:00,
2013-03-25 20:09:00,39.6,28.0,29.52,North,360,8.5,8.5,62,-99.99,,,-99.99,tws,2013-03-26 00:09:00,
2013-03-25 20:14:00,39.3,27.6,29.52,South,180,14.2,14.2,62,-99.99,,,-99.99,tws,2013-03-26 00:14:00,
2013-03-25 20:19:00,39.2,27.6,29.52,NNW,337,13.1,13.1,62,-99.99,,,-99.99,tws,2013-03-26 00:19:00,
2013-03-25 20:24:00,39.1,27.6,29.52,North,0,13.6,13.6,63,-99.99,,,-99.99,tws,2013-03-26 00:24:00,
2013-03-25 20:29:00,39.2,27.9,29.52,North,0,8.6,8.6,63,-99.99,,,-99.99,tws,2013-03-26 00:29:00,
2013-03-25 20:34:00,39.3,28.2,29.52,North,360,11.9,11.9,63,-99.99,,,-99.99,tws,2013-03-26 00:34:00,
2013-03-25 20:39:00,39.1,27.7,29.53,North,0,13.7,13.7,63,-99.99,,,-99.99,tws,2013-03-26 00:39:00,
2013-03-25 20:44:00,39.1,28.0,29.54,NE,45,9.4,9.4,64,-99.99,,,-99.99,tws,2013-03-26 00:44:00,
2013-03-25 20:49:00,39.0,27.9,29.54,North,360,7.7,7.7,64,-99.99,,,-99.99,tws,2013-03-26 00:49:00,
2013-03-25 20:54:00,39.3,28.4,29.54,North,360,8.5,8.5,64,-99.99,,,-99.99,tws,2013-03-26 00:54:00,
2013-03-25 20:59:00,39.0,28.0,29.54,North,360,10.5,10.5,64,-99.99,,,-99.99,tws,2013-03-26 00:59:00,
2013-03-25 21:04:00,39.1,28.3,29.54,NE,45,8.3,8.3,64,-99.99,,,-99.99,tws,2013-03-26 01:04:00,
2013-03-25 21:09:00,39.1,28.6,29.55,North,360,8.4,8.4,65,-99.99,,,-99.99,tws,2013-03-26 01:09:00,
2013-03-25 21:14:00,39.0,28.0,29.55,NNE,22,6.4,6.4,64,-99.99,,,-99.99,tws,2013-03-26 01:14:00,
2013-03-25 21:20:00,39.0,28.4,29.55,NNW,337,4.0,4.0,65,-99.99,,,-99.99,tws,2013-03-26 01:20:00,
2013-03-25 21:25:00,38.7,28.2,29.55,North,0,9.5,9.5,65,-99.99,,,-99.99,tws,2013-03-26 01:25:00,
2013-03-25 21:30:00,38.8,28.1,29.55,NNE,22,11.8,11.8,65,-99.99,,,-99.99,tws,2013-03-26 01:30:00,
2013-03-25 21:35:00,39.0,28.3,29.55,East,90,8.6,8.6,65,-99.99,,,-99.99,tws,2013-03-26 01:35:00,
2013-03-25 21:40:00,38.7,28.2,29.55,ENE,67,15.4,15.4,65,-99.99,,,-99.99,tws,2013-03-26 01:40:00,
2013-03-25 21:45:00,39.1,28.1,29.55,NNE,22,7.3,7.3,64,-99.99,,,-99.99,tws,2013-03-26 01:45:00,
2013-03-25 21:50:00,38.8,28.3,29.56,NE,45,9.0,9.0,65,-99.99,,,-99.99,tws,2013-03-26 01:50:00,
2013-03-25 21:55:00,38.8,28.4,29.56,NNE,22,12.4,12.4,65,-99.99,,,-99.99,tws,2013-03-26 01:55:00,
2013-03-25 22:00:00,38.5,28.1,29.56,NNE,22,14.3,14.3,65,-99.99,,,-99.99,tws,2013-03-26 02:00:00,
2013-03-25 22:05:00,38.7,28.3,29.56,NNE,22,9.7,9.7,65,-99.99,,,-99.99,tws,2013-03-26 02:05:00,
2013-03-25 22:10:00,38.5,28.3,29.56,ENE,67,9.2,9.2,66,-99.99,,,-99.99,tws,2013-03-26 02:10:00,
2013-03-25 22:15:00,38.3,28.0,29.56,ENE,67,14.4,14.4,66,-99.99,,,-99.99,tws,2013-03-26 02:15:00,
2013-03-25 22:20:00,38.5,28.3,29.56,NE,45,6.5,6.5,66,-99.99,,,-99.99,tws,2013-03-26 02:20:00,
2013-03-25 22:25:00,38.3,28.1,29.56,ENE,67,11.2,11.2,66,-99.99,,,-99.99,tws,2013-03-26 02:25:00,
2013-03-25 22:30:00,38.3,28.2,29.56,NNE,22,11.1,11.1,66,-99.99,,,-99.99,tws,2013-03-26 02:30:00,
2013-03-25 22:35:00,38.2,28.2,29.57,NNE,22,9.3,9.3,66,-99.99,,,-99.99,tws,2013-03-26 02:35:00,
2013-03-25 22:40:00,38.0,28.1,29.57,NNE,22,11.3,11.3,67,-99.99,,,-99.99,tws,2013-03-26 02:40:00,
2013-03-25 22:45:00,38.3,28.3,29.56,North,0,9.4,9.4,66,-99.99,,,-99.99,tws,2013-03-26 02:45:00,
2013-03-25 22:50:00,38.3,28.5,29.57,NNE,22,4.4,4.4,67,-99.99,,,-99.99,tws,2013-03-26 02:50:00,
2013-03-25 22:55:00,38.0,28.3,29.57,North,0,11.7,11.7,67,-99.99,,,-99.99,tws,2013-03-26 02:55:00,
2013-03-25 23:00:00,38.3,28.6,29.57,North,0,2.9,2.9,67,-99.99,,,-99.99,tws,2013-03-26 03:00:00,
2013-03-25 23:05:00,38.1,28.6,29.56,North,0,5.5,5.5,68,-99.99,,,-99.99,tws,2013-03-26 03:05:00,
2013-03-25 23:10:00,38.0,28.4,29.56,North,0,5.9,5.9,68,-99.99,,,-99.99,tws,2013-03-26 03:10:00,
2013-03-25 23:15:00,37.7,28.0,29.56,North,360,7.0,7.0,67,-99.99,,,-99.99,tws,2013-03-26 03:15:00,
2013-03-25 23:20:00,37.9,28.3,29.56,North,0,4.1,4.1,68,-99.99,,,-99.99,tws,2013-03-26 03:20:00,
2013-03-25 23:25:00,37.7,28.0,29.57,NNW,337,6.0,6.0,67,-99.99,,,-99.99,tws,2013-03-26 03:25:00,
2013-03-25 23:30:00,37.8,28.3,29.57,NE,45,7.6,7.6,68,-99.99,,,-99.99,tws,2013-03-26 03:30:00,
2013-03-25 23:35:00,37.3,28.1,29.57,NNE,22,7.3,7.3,69,-99.99,,,-99.99,tws,2013-03-26 03:35:00,
2013-03-25 23:40:00,37.1,27.9,29.57,NNE,22,7.6,7.6,69,-99.99,,,-99.99,tws,2013-03-26 03:40:00,
2013-03-25 23:45:00,37.3,27.9,29.57,NNW,337,3.9,3.9,68,-99.99,,,-99.99,tws,2013-03-26 03:45:00,
2013-03-25 23:50:00,37.3,28.0,29.57,North,360,5.0,5.0,68,-99.99,,,-99.99,tws,2013-03-26 03:50:00,
2013-03-25 23:55:00,37.2,28.0,29.57,North,0,6.1,6.1,69,-99.99,,,-99.99,tws,2013-03-26 03:55:00,